Regional Weather Roundup
Issued by NWS

Home | Current Version | Previous Version | Graphics & Text | Print | Product List | Glossary On
Versions: 1 2 3 4 5 6 7 8 9 10 11 12 13 14 15 16 17 18 19 20 21 22 23 24 25 26 27 28 29 30 31 32 33 34 35 36 37 38 39 40 41 42 43 44 45 46 47 48 49 50
000
ASUS43 KDTX 300901
RWRMI
MICHIGAN HOURLY REGIONAL WEATHER ROUNDUP
NATIONAL WEATHER SERVICE DETROIT/PONTIAC MI
500 AM EDT SAT APR 30 2016

NOTE: "FAIR" INDICATES FEW OR NO CLOUDS BELOW 12,000 FEET WITH NO
SIGNIFICANT WEATHER AND/OR OBSTRUCTION TO VISIBILITY.

MIZ047>049-052>055-059>063-066>070-074>076-081>083-301000-
SOUTHEAST LOWER MICHIGAN

CITY           SKY/WX    TMP DP  RH WIND       PRES   REMARKS
ADRIAN         CLEAR     43  40  89 E8        30.12S
ALMA           CLEAR     32  32  99 CALM      30.16S
ANN ARBOR      PTCLDY    43  35  73 NE3       30.12F
BAD AXE        PTCLDY    31  28  90 CALM      30.19S
CARO           CLEAR     33  29  86 NE3       30.17S
DETROIT CITY   CLEAR     40  32  73 NE3       30.14F
DETROIT        PTCLDY    44  33  65 NE7       30.14F
FLINT          CLEAR     38  32  79 NE3       30.16F
GROSSE ILE     PTCLDY    43  36  75 NE7       30.12F
HILLSDALE      CLOUDY    45  40  82 E7        30.09F
HOWELL         CLOUDY    39  35  87 CALM      30.13F

CITY           SKY/WX    TMP DP  RH WIND       PRES   REMARKS
JACKSON        MOCLDY    44  37  76 E7        30.11S
LAMBERTVILLE   CLEAR     42  38  89 CALM      30.12F
LANSING        CLEAR     39  35  86 E6        30.13F WCI  35
LAPEER         CLOUDY    37  35  94 CALM      30.16F
MASON          CLEAR     40  35  81 E3        30.12F
MONROE         PTCLDY    42  40  92 CALM      30.12F
MT. CLEMENS    CLEAR     40  31  69 N3        30.14F
PONTIAC        CLEAR     42  28  57 E3        30.13F
PORT HOPE        N/A     35  31  85 CALM      30.18R
PORT HURON     PTCLDY    39  32  75 CALM      30.16F
TRI CITIES     CLEAR     37  32  82 NE9       30.17F WCI  30
MIDLAND        FAIR      32  32 100 CALM      30.17F
TROY           PTCLDY    44  28  54 NE3       30.15F
SAGINAW HB     CLEAR     32  30  93 NE5       30.16F WCI  27
$$
MIZ043>046-050>051-056>058-064>065-071>073-077>080-301000-
SOUTHWEST LOWER MICHIGAN

CITY           SKY/WX    TMP DP  RH WIND       PRES   REMARKS
BATTLE CREEK   CLOUDY    46  39  76 E7        30.10F
BENTON HARBOR  CLOUDY    43  39  86 CALM      30.09R
BIG RAPIDS     CLEAR     33  31  91 CALM      30.14F
COLDWATER      CLOUDY    46  38  74 E6        30.09S
FREMONT        FAIR      38  38 100 NE6       30.13F WCI  33
HOLLAND        CLEAR     41  37  86 NE5       30.11F
GRAND RAPIDS   CLEAR     39  36  89 E7        30.12F WCI  34
IONIA          FAIR      37  36  94 NE7       30.12F WCI  32
KALAMAZOO      CLOUDY    47  38  71 E3        30.10S
LUDINGTON      CLEAR     32  32 100 CALM      30.14F FOG
MARSHALL       PTCLDY    45  38  77 E3        30.09F
MOUNT PLEASANT CLEAR     35  33  92 N3        30.16F
MUSKEGON       CLEAR     41  36  82 NE7       30.13F
$$
MIZ016>042-301000-
NORTHERN LOWER MICHIGAN

CITY           SKY/WX    TMP DP  RH WIND       PRES   REMARKS
ALPENA         CLEAR     29  27  92 CALM      30.21R
BEAVER ISLAND  CLEAR     30  29  94 CALM      30.20F
BELLAIRE       CLEAR     32  31  95 CALM      30.19F
CADILLAC       CLEAR     30  28  93 CALM      30.16S
CHARLEVOIX     PTCLDY    38  31  76 SE3       30.22S
FRANKFORT      CLEAR     36  33  88 CALM      30.15F
GAYLORD        PTCLDY    33  27  78 CALM      30.18R
HARBOR SPRINGS PTCLDY    33  29  83 E3        30.20S
HOUGHTON LAKE  CLEAR     32  31  96 CALM      30.19R
MANISTEE       CLEAR     30  27  86 E5        30.15F WCI  25
OSCODA         CLEAR     29  25  86 N3        30.20S
PELLSTON       CLEAR     28  26  92 CALM      30.21R
ROGERS CITY    CLEAR     29  26  90 S3        30.22S
TRAVERSE CITY  CLEAR     34  31  88 CALM      30.17S
$$
MIZ007>008-015-301000-
EASTERN UPPER MICHIGAN

CITY           SKY/WX    TMP DP  RH WIND       PRES   REMARKS
KINROSS          N/A     36  30  80 CALM      30.20F
MACKINAC ISLAN CLEAR     35  27  73 E5        30.20S WCI  31
NEWBERRY       CLOUDY    31  29  94 CALM      30.20F
S. S. MARIE    CLOUDY    36  30  79 NW5       30.20R WCI  32
MUNISING         N/A     34  31  88 CALM      30.21F
$$
MIZ004>006-011>014-085-301000-
CENTRAL UPPER MICHIGAN

CITY           SKY/WX    TMP DP  RH WIND       PRES   REMARKS
MANISTIQUE     CLEAR     32  30  92 N3        30.21S
ESCANABA       CLOUDY    39  30  70 N3        30.20F
MENOMINEE      CLEAR     37  28  70 NE7       30.16F WCI  32
SAWYER-GWINN   CLOUDY    34  29  83 NE3       30.20R
$$
MIZ001>003-009>011-084-301000-
WESTERN UPPER MICHIGAN

CITY           SKY/WX    TMP DP  RH WIND       PRES   REMARKS
IRON MOUNTAIN  CLOUDY    36  28  73 NW6       30.17F WCI  31
HOUGHTON       CLOUDY    39  30  70 NE8       30.23S WCI  33
COPPER HARBOR    N/A     39  35  86 CALM      30.24S
IRONWOOD         N/A     34  30  86 CALM      30.19F
$$

ABBREVIATIONS USED IN REMARKS
   TC - TEMPERATURE IN CELSIUS
  WCI - WIND CHILL INDEX
   HX - HEAT INDEX
  VSB - VISIBILITY





USA.gov is the U.S. government's official web portal to all federal, state and local government web resources and services.